BAW7291 EGLC-LOWI

Flight info

Callsign BAW7291
Flight time N/A
Altitude 39000
Route SOQQA M87 UMTUM L9 KONAN UL607 MATUG DCT AMASI DCT BOMBI T104 WLD M867 BAVAX Z106 MANAL M736 TULSI TULSI3A
Aircraft A319/M-SDE3FGHIRWY/LB1

Departure

Time 2026-05-01 14:42
Airport London City Airport (EGLC)

Arrival

Time N/A
Airport Innsbruck Airport (LOWI)
Time Latitude Longitude Altitude Speed Heading
2026-05-01 14:22 51.50444 0.04570 26 ft 0 kts 316°
2026-05-01 14:36 51.50447 0.04566 25 ft 3 kts 316°
2026-05-01 14:36 51.50459 0.04547 28 ft 0 kts 316°
2026-05-01 14:40 51.50465 0.04531 28 ft 3 kts 302°
2026-05-01 14:40 51.50476 0.04489 28 ft 5 kts 290°
2026-05-01 14:40 51.50502 0.04445 29 ft 6 kts 341°
2026-05-01 14:41 51.50549 0.04462 25 ft 8 kts 51°
2026-05-01 14:41 51.50554 0.04496 25 ft 0 kts 86°
2026-05-01 14:42 51.50559 0.04618 26 ft 46 kts 86°
2026-05-01 14:42 51.50519 0.05659 28 ft 138 kts 93°
2026-05-01 14:42 51.50460 0.07367 598 ft 154 kts 96°
2026-05-01 14:42 51.50412 0.09110 1426 ft 159 kts 97°
2026-05-01 14:43 51.50434 0.10918 2285 ft 168 kts 84°
2026-05-01 14:43 51.50712 0.12091 2837 ft 174 kts 64°
2026-05-01 14:43 51.51582 0.13660 3248 ft 207 kts 37°
2026-05-01 14:43 51.52964 0.14790 3505 ft 237 kts 25°
2026-05-01 14:44 51.54457 0.16052 4265 ft 244 kts 39°
2026-05-01 14:44 51.55976 0.20904 5625 ft 269 kts 85°
2026-05-01 14:44 51.56306 0.23944 6383 ft 283 kts 80°
2026-05-01 14:45 51.57056 0.26918 7296 ft 291 kts 68°
2026-05-01 14:45 51.58805 0.32864 9276 ft 297 kts 69°
2026-05-01 14:45 51.59352 0.36050 10200 ft 296 kts 90°
2026-05-01 14:46 51.59130 0.39365 10690 ft 307 kts 112°
2026-05-01 14:46 51.56236 0.44641 11449 ft 333 kts 147°
2026-05-01 14:47 51.52122 0.49344 13090 ft 342 kts 147°
2026-05-01 14:47 51.50185 0.51581 13866 ft 345 kts 147°
2026-05-01 14:47 51.48255 0.53817 14560 ft 348 kts 147°
2026-05-01 14:48 51.44274 0.58421 15931 ft 354 kts 147°
2026-05-01 14:48 51.42270 0.60732 16619 ft 357 kts 147°
2026-05-01 14:48 51.38750 0.66411 17969 ft 368 kts 132°
2026-05-01 14:49 51.35501 0.72844 19225 ft 374 kts 133°
2026-05-01 14:49 51.32189 0.79343 20401 ft 380 kts 132°
2026-05-01 14:50 51.29947 0.83744 21207 ft 383 kts 132°
2026-05-01 14:50 51.25424 0.92625 22676 ft 391 kts 132°
2026-05-01 14:51 51.23702 0.95995 23203 ft 394 kts 132°
2026-05-01 14:51 51.20787 1.03472 24164 ft 406 kts 115°
2026-05-01 14:52 51.19641 1.12413 24991 ft 418 kts 101°
2026-05-01 14:52 51.19308 1.16996 25764 ft 407 kts 101°
2026-05-01 14:52 51.18671 1.25777 27583 ft 389 kts 101°
2026-05-01 14:53 51.18353 1.30098 27899 ft 398 kts 101°
2026-05-01 14:53 51.18018 1.34546 28036 ft 409 kts 101°
2026-05-01 14:53 51.17673 1.39096 28171 ft 419 kts 101°
2026-05-01 14:53 51.17323 1.43765 28297 ft 429 kts 101°
2026-05-01 14:54 51.16979 1.48450 28611 ft 421 kts 101°
2026-05-01 14:54 51.16647 1.53072 28939 ft 418 kts 101°
2026-05-01 14:54 51.16313 1.57666 29270 ft 419 kts 101°
2026-05-01 14:54 51.15972 1.62291 29607 ft 421 kts 101°
2026-05-01 14:55 51.15626 1.66940 29952 ft 423 kts 101°
2026-05-01 14:55 51.15274 1.71598 30210 ft 426 kts 101°
2026-05-01 14:55 51.14911 1.76330 30314 ft 434 kts 101°
2026-05-01 14:56 51.14159 1.86021 30512 ft 445 kts 101°
2026-05-01 14:56 51.13401 1.95795 30294 ft 443 kts 100°
2026-05-01 14:56 51.13021 2.00673 30157 ft 446 kts 100°
2026-05-01 14:57 51.12691 2.05602 30200 ft 448 kts 99°
2026-05-01 14:57 51.11955 2.20461 30198 ft 449 kts 97°
2026-05-01 14:58 51.11720 2.25360 30364 ft 450 kts 98°
2026-05-01 14:58 51.11462 2.30381 30752 ft 449 kts 98°
2026-05-01 14:58 51.11195 2.35266 31149 ft 448 kts 98°
2026-05-01 14:58 51.10913 2.40265 31539 ft 448 kts 98°
2026-05-01 14:59 51.10634 2.45136 31931 ft 448 kts 98°
2026-05-01 14:59 51.10349 2.50064 32343 ft 448 kts 98°
2026-05-01 14:59 51.10060 2.54996 32761 ft 447 kts 98°
2026-05-01 14:59 51.09769 2.59908 33187 ft 447 kts 98°
2026-05-01 15:00 51.08678 2.69566 34047 ft 442 kts 109°
2026-05-01 15:00 51.07833 2.74261 34445 ft 442 kts 109°
2026-05-01 15:00 51.06984 2.78957 34822 ft 441 kts 109°
2026-05-01 15:01 51.06134 2.83639 35221 ft 441 kts 109°
2026-05-01 15:01 51.05280 2.88321 35590 ft 441 kts 108°
2026-05-01 15:01 51.04428 2.92994 35948 ft 440 kts 108°
2026-05-01 15:01 51.03411 2.97560 36298 ft 438 kts 117°
2026-05-01 15:02 51.01926 3.01763 36656 ft 434 kts 126°
2026-05-01 15:02 51.01342 3.03080 36764 ft 434 kts 129°
2026-05-01 15:02 50.98316 3.09420 37175 ft 435 kts 124°
2026-05-01 15:02 50.96998 3.13735 37211 ft 438 kts 111°
2026-05-01 15:03 50.96072 3.18346 37207 ft 439 kts 109°
2026-05-01 15:03 50.94449 3.27669 37204 ft 439 kts 107°
2026-05-01 15:04 50.92830 3.37016 37205 ft 439 kts 108°
2026-05-01 15:04 50.91109 3.46309 37201 ft 439 kts 109°
2026-05-01 15:05 50.89336 3.55570 36907 ft 439 kts 109°
2026-05-01 15:05 50.88445 3.60198 36671 ft 439 kts 109°
2026-05-01 15:05 50.87568 3.64762 36146 ft 438 kts 109°
2026-05-01 15:05 50.86683 3.69390 35486 ft 441 kts 108°
2026-05-01 15:06 50.85877 3.74098 35253 ft 444 kts 106°
2026-05-01 15:06 50.84562 3.83641 35217 ft 445 kts 103°
2026-05-01 15:07 50.83065 3.93121 35217 ft 445 kts 108°
2026-05-01 15:07 50.81265 4.02482 35222 ft 444 kts 109°
2026-05-01 15:08 50.79406 4.11811 35591 ft 444 kts 109°
2026-05-01 15:08 50.78490 4.16451 35969 ft 443 kts 109°
2026-05-01 15:08 50.77579 4.21105 36344 ft 442 kts 109°
2026-05-01 15:08 50.76674 4.25740 36710 ft 441 kts 109°
2026-05-01 15:09 50.75773 4.30367 37067 ft 441 kts 109°
2026-05-01 15:09 50.74870 4.34994 37419 ft 440 kts 109°
2026-05-01 15:09 50.73968 4.39594 37777 ft 439 kts 109°
2026-05-01 15:09 50.73060 4.44198 38112 ft 439 kts 109°
2026-05-01 15:10 50.72151 4.48781 38433 ft 438 kts 109°
2026-05-01 15:10 50.70638 4.56399 38972 ft 437 kts 109°
2026-05-01 15:10 50.69728 4.60984 39155 ft 438 kts 109°
2026-05-01 15:11 50.66983 4.74705 39233 ft 437 kts 109°
2026-05-01 15:12 50.65144 4.83842 39233 ft 437 kts 109°
2026-05-01 15:12 50.62376 4.97531 39233 ft 437 kts 109°
2026-05-01 15:14 50.57722 5.20314 39229 ft 438 kts 109°
2026-05-01 15:14 50.54904 5.34009 39230 ft 439 kts 109°
2026-05-01 15:15 50.51119 5.52225 39256 ft 437 kts 109°
2026-05-01 15:16 50.47335 5.70277 39258 ft 434 kts 110°
2026-05-01 15:18 50.42590 5.92717 39262 ft 433 kts 109°
2026-05-01 15:19 50.38739 6.10686 39217 ft 438 kts 109°
2026-05-01 15:19 50.35822 6.24252 39221 ft 442 kts 109°
2026-05-01 15:20 50.32839 6.37995 39223 ft 443 kts 109°
2026-05-01 15:21 50.30852 6.47069 39221 ft 444 kts 109°
2026-05-01 15:21 50.28849 6.56221 39221 ft 445 kts 109°
2026-05-01 15:22 50.25838 6.69959 39260 ft 446 kts 109°
2026-05-01 15:22 50.23807 6.79119 39276 ft 446 kts 109°
2026-05-01 15:23 50.21761 6.88274 39291 ft 446 kts 110°
2026-05-01 15:23 50.19714 6.97418 39299 ft 447 kts 109°
2026-05-01 15:24 50.17660 7.06577 39302 ft 447 kts 109°
2026-05-01 15:24 50.15608 7.15712 39301 ft 447 kts 109°
2026-05-01 15:25 50.13542 7.24857 39307 ft 447 kts 110°
2026-05-01 15:25 50.11464 7.33980 39300 ft 447 kts 109°
2026-05-01 15:26 50.09375 7.43109 39303 ft 448 kts 109°
2026-05-01 15:26 50.07272 7.52236 39296 ft 448 kts 110°
2026-05-01 15:27 50.05168 7.61365 39300 ft 448 kts 110°
2026-05-01 15:28 50.02013 7.75042 39301 ft 448 kts 110°
2026-05-01 15:28 49.99892 7.84170 39295 ft 449 kts 109°
2026-05-01 15:29 49.96690 7.97836 39290 ft 449 kts 110°
2026-05-01 15:30 49.92382 8.16087 39284 ft 450 kts 110°
2026-05-01 15:31 49.85872 8.43433 39286 ft 451 kts 110°
2026-05-01 15:32 49.81476 8.61655 39288 ft 451 kts 110°
2026-05-01 15:34 49.74847 8.88924 39301 ft 451 kts 110°